Terminal Aerodrome Forecast
Issued by NWS Duluth, MN

Home | Current Version | Previous Version | Text Only | Print | Product List | Glossary On
Versions: 1 2 3 4 5 6 7 8 9 10 11 12 13 14 15 16 17 18 19 20 21 22 23 24 25
000
FTUS43 KDLH 301100
TAFDLH
TAF
KDLH 301138Z 3012/3112 00000KT P6SM SCT100
     FM301400 30007KT P6SM SCT050
     FM302000 31011KT P6SM VCTS SCT040CB BKN070
     FM310100 31005KT P6SM SCT080=

USA.gov is the U.S. government's official web portal to all federal, state and local government web resources and services.